Showing default

COSMOS 1565, 15004

Orbit data source: Space-Track

COSMOS 1565, 15004 is a payload satellite owned by GUKOS (CIS) in LEO that was launched on Mon, 28 May 1984 UTC via a KOSMOS 11K65M launch vehicle from the Plesetsk Missile And Space Complex (PKMTR). Payload-class satellites include a variety of spacecraft equipped with specific instruments for various scientific and technological missions. These include communications satellites like Starlink; space stations such as the ISS; scientific satellites like the Hubble; Earth observation satellites from companies like Planet Labs, Umbra, and HawkEye 360; GPS; miniature CubeSats for education and research; and military/defense satellites.

Loading next visibility...
Identifier
15004, 1984-052G
Orbit
LEO
Country
Flag of CISCIS
Related business
Manufacturer
NPO PM
Mission
Spacecraft
Bus & Motor
STRELA-1 11F625, Unknown motor
Mass
60 kg wet, 60 kg dry
Launch date (UTC)
1984-05-28 (42 years ago)
Launch vehicle
KOSMOS 11K65M
Launch site
Plesetsk Missile And Space Complex (PKMTR)
Object type
Payload
Rocket body
Debris
Shape & HBR
Unknown
Radar Cross Section
Medium (>0.1 m² and <1 m²)

Expand to show TLE details & history
Last TLE update: 5 hours ago

TLE from 5 hours ago
0 COSMOS 1565
1 15004U 84052G   26037.15817229  .00000008  00000-0  14903-3 0  9990
2 15004  74.0119 281.7024 0042905  63.1188  11.1840 12.55461221910706
Epoch: 2026-02-06T03:47Z
TLE epoch observation values (Epoch: 2026-02-06T03:47:46.085Z)
Latitude
67.89094°
Longitude
133.03277°
Altitude
1,420.21 km
Speed
7.172 km/s
True Right ascension
21h 45m 05s
True Declination
67° 46' 52"
Sunlit
Object was in daylight at epoch
Visualization orbit readout
Latitude
Unknown
Longitude
Unknown
Altitude
Unknown
Speed
Unknown
Apparent Right ascension
Unknown
Apparent Declination
Unknown
Sunlit
N/A
Visualization observer readout
Local Sidereal Time
11:07:21
Azimuth
Unknown
Elevation
Unknown
Doppler factor
Unknown
Orbital elements
Apogee altitude
1,473.107 km
Perigee altitude
1,406.023 km
Semi-major axis
7,817.702 km
Eccentricity
0.00429
Inclination
74.0119°
RAAN
281.7024°
Arg. of periapsis
63.1188°
True anomaly
11.27987°
Mean anomaly
11.184°
Eccentric anomaly
11.23188°
Mean motion
3.13996 °/min
Orbital period
114.65 mins
BSTAR
0.00014903
Loading maneuver chart data...
Computing Atmospheric mass density...
Loading historical data...
Loading historical data...
Loading historical data...
Loading historical data...
Loading historical data...
Loading historical data...
Loading historical data...

Documentation

Showing up to 5 results
|